If you wish to contribute or participate in the discussions about articles you are invited to join SKYbrary as a registered user

 Actions

Dinard-Pleurtuit-Saint-Malo Airport

From SKYbrary Wiki

LFRD
Airport
ICAO: LFRD – IATA: DNR
Summary
Name Dinard-Pleurtuit-Saint-Malo Airport
Region Europe
Territory France FR.gif
Location , Bretagne
Serving Dinard
Elevation 66.751 m
219 ft
219 ft66.751 m
Type medium airport
Coordinates 48° 35' 15.66" N, 2° 4' 47.85" W
Runways
Designator Length Width Surface ROPS
12/30 1435 m4,708.005 ft
45 m147.638 ft
ASP yes/yes
17/35 2200 m7,217.848 ft
45 m147.638 ft
ASP yes/yes


METAR
Observation LFRD 201200Z AUTO 14009KT CAVOK 05/01 Q1008 NOSIG
Station Dinard
Date/Time 20 November 2019 12:00:00
Wind direction 140°
Wind speed 09 kts
Lowest cloud amount clouds and visibility OK
Temperature 5°C
Dew point 1°C
Humidity 75%
QNH 1008 hPa
Weather condition n/a